C/2022 JK5 ( PanSTARRS )

Japanese version
Home page
Updated on April 28, 2023

---------------------------------------------------------------------

* Profile

Discovery Date May 9, 2022
Magnitude 21.0 mag
Discoverer Pan-STARRS 2 telescope (Haleakala)

* Pictures

* Orbital Elements

Epoch 2023 Feb. 25.0 TT = JDT 2460000.5                                         
T 2023 Apr. 28.80809 TT                                 Rudenko                 
q   2.6869477            (2000.0)            P               Q                  
z  +0.0231751      Peri.  247.15597     +0.56507791     +0.78628862             
 +/-0.0000118      Node    59.65275     -0.61013164     +0.60212815             
e   0.9377296      Incl.   16.83092     -0.55536145     +0.13853481             
>From 63 observations 2022 May 9-2023 Apr. 24, mean residual 0".3.               

* Finding Charts

* Magnitudes Graph

        m1 = 8.0 + 5 log d + 16.0 log r

---------------------------------------------------------------------

The orbital elements are published on M.P.E.C. 2023-H180.
The charts are made with StellaNavigator Ver.11 (AstroArts).
The magnitudes graphs are made with Comet for Windows.

---------------------------------------------------------------------

Copyright(C) Seiichi Yoshida (comet@aerith.net). All rights reserved.